West Bend, WI

10:43 AM CST on February 27, 2017 (GMT -0600)
West Bend Municipal

Weather History for KETB - May, 2014

Change the Weather History Date:

Thursday, May 1, 2014

  Actual Average Record
Temperature  
Mean Temperature 42 °F -  
Max Temperature 46 °F 61 °F 88 °F (1952)
Min Temperature 37 °F 39 °F 25 °F (1978)
Degree Days  
Heating Degree Days 24    
Moisture  
Dew Point 37 °F    
Average Humidity 79    
Maximum Humidity 93    
Minimum Humidity 66    
Precipitation  
Precipitation 0.01 in - - ()
Sea Level Pressure  
Sea Level Pressure 29.67 in    
Wind  
Wind Speed 6 mph (SW)    
Max Wind Speed 14 mph    
Max Gust Speed 18 mph    
Visibility 10 miles    
Events Rain    
Averages and records for this station are not official NWS values.
T = Trace of Precipitation, MM = Missing Value Source: NWS Daily Summary

Daily Weather History Graph

Daily Weather History Graph

Search for Another Location

Airport or City:

Trip Planner

Search our weather history database for the weather conditions in past years. The results will help you decide how hot, cold, wet, or windy it might be!

Date:

Astronomy

May. 01, 2014 Rise Set
Actual Time 5:45 AM CDT 7:54 PM CDT
Civil Twilight 5:14 AM CDT 8:25 PM CDT
Nautical Twilight 4:35 AM CDT 9:04 PM CDT
Astronomical Twilight 3:53 AM CDT 9:47 PM CDT
Moon 7:31 AM CDT (5/1) 10:29 PM CDT (5/1)
Length of Visible Light 15h 11m
Length of Day
14h 09m
Waxing Crescent, 7% of the Moon is Illuminated
May 1
Waxing Crescent
May 6
First Quarter
May 14
Full
May 21
Last Quarter
May 28
New

Hourly Weather History & Observations

Time (CDT) Temp. Windchill Dew Point Humidity Pressure Visibility Wind Dir Wind Speed Gust Speed Precip Events Conditions
12:10 AM 41.0 °F 36.4 °F 33.8 °F 76% 29.71 in 10.0 mi SSE 6.9 mph - N/A   Overcast
12:30 AM 41.0 °F 38.0 °F 33.8 °F 76% 29.71 in 10.0 mi South 4.6 mph - N/A   Overcast
12:50 AM 41.0 °F 38.0 °F 33.8 °F 76% 29.70 in 10.0 mi SSE 4.6 mph - N/A   Overcast
1:10 AM 41.0 °F 38.0 °F 33.8 °F 76% 29.70 in 10.0 mi SSE 4.6 mph - N/A   Overcast
1:30 AM 41.0 °F 37.1 °F 35.6 °F 81% 29.69 in 10.0 mi South 5.8 mph - N/A   Overcast
1:50 AM 41.0 °F 38.0 °F 35.6 °F 81% 29.68 in 10.0 mi South 4.6 mph - N/A   Overcast
2:10 AM 41.0 °F 38.0 °F 35.6 °F 81% 29.67 in 10.0 mi South 4.6 mph - N/A   Overcast
2:30 AM 41.0 °F - 35.6 °F 81% 29.67 in 10.0 mi Calm Calm - N/A   Overcast
2:50 AM 41.0 °F 39.0 °F 35.6 °F 81% 29.66 in 10.0 mi SSE 3.5 mph - N/A   Overcast
3:10 AM 41.0 °F 39.0 °F 35.6 °F 81% 29.66 in 10.0 mi South 3.5 mph - N/A   Overcast
3:30 AM 41.0 °F 39.0 °F 35.6 °F 81% 29.65 in 10.0 mi South 3.5 mph - N/A   Overcast
3:50 AM 41.0 °F 38.0 °F 35.6 °F 81% 29.65 in 10.0 mi South 4.6 mph - N/A   Light Drizzle
4:10 AM 39.2 °F 34.2 °F 35.6 °F 87% 29.65 in 7.0 mi SSW 6.9 mph - N/A Rain Rain
4:30 AM 37.4 °F - 35.6 °F 93% 29.64 in 7.0 mi Calm Calm - 0.01 in   Heavy Drizzle
4:50 AM 37.4 °F 34.9 °F 35.6 °F 93% 29.64 in 10.0 mi SSW 3.5 mph - 0.01 in   Overcast
5:10 AM 37.4 °F 32.8 °F 35.6 °F 93% 29.63 in 10.0 mi SSW 5.8 mph - N/A   Overcast
5:30 AM 37.4 °F 33.8 °F 33.8 °F 87% 29.63 in 10.0 mi SSW 4.6 mph - N/A   Overcast
5:50 AM 37.4 °F 34.9 °F 33.8 °F 87% 29.63 in 10.0 mi SSW 3.5 mph - N/A   Overcast
6:10 AM 37.4 °F 34.9 °F 33.8 °F 87% 29.63 in 10.0 mi SSW 3.5 mph - N/A   Overcast
6:30 AM 39.2 °F 37.0 °F 35.6 °F 87% 29.63 in 10.0 mi South 3.5 mph - N/A   Overcast
6:50 AM 39.2 °F - 35.6 °F 87% 29.63 in 10.0 mi Calm Calm - N/A   Overcast
7:10 AM 39.2 °F 35.0 °F 35.6 °F 87% 29.63 in 10.0 mi SSW 5.8 mph - N/A   Overcast
7:30 AM 41.0 °F 36.4 °F 35.6 °F 81% 29.64 in 10.0 mi SSW 6.9 mph - N/A   Overcast
7:50 AM 41.0 °F 37.1 °F 33.8 °F 76% 29.64 in 10.0 mi SSW 5.8 mph - N/A   Overcast
8:10 AM 41.0 °F 37.1 °F 33.8 °F 76% 29.64 in 10.0 mi SW 5.8 mph - N/A   Overcast
8:30 AM 41.0 °F 38.0 °F 33.8 °F 76% 29.64 in 10.0 mi SSW 4.6 mph - N/A   Overcast
8:50 AM 41.0 °F 38.0 °F 33.8 °F 76% 29.64 in 10.0 mi SSW 4.6 mph - N/A Rain Light Rain
9:10 AM 41.0 °F 37.1 °F 35.6 °F 81% 29.64 in 10.0 mi SW 5.8 mph - N/A   Light Drizzle
9:30 AM 41.0 °F 38.0 °F 35.6 °F 81% 29.64 in 10.0 mi WSW 4.6 mph - N/A   Light Drizzle
9:50 AM 42.8 °F 38.6 °F 35.6 °F 76% 29.64 in 10.0 mi WSW 6.9 mph - N/A   Overcast
10:10 AM 42.8 °F 38.0 °F 33.8 °F 70% 29.64 in 10.0 mi WSW 8.1 mph - N/A Rain Light Rain
10:30 AM 44.6 °F 41.4 °F 35.6 °F 71% 29.64 in 10.0 mi WSW 5.8 mph - N/A   Overcast
10:50 AM 42.8 °F 38.0 °F 35.6 °F 76% 29.64 in 10.0 mi WSW 8.1 mph - N/A Rain Light Rain
11:10 AM 42.8 °F 37.5 °F 35.6 °F 76% 29.64 in 10.0 mi WSW 9.2 mph - N/A   Overcast
11:30 AM 42.8 °F 35.8 °F 35.6 °F 76% 29.65 in 10.0 mi West 13.8 mph - N/A   Overcast
11:50 AM 42.8 °F 36.6 °F 35.6 °F 76% 29.65 in 10.0 mi SW 11.5 mph - N/A   Overcast
12:10 PM 42.8 °F 36.6 °F 35.6 °F 76% 29.65 in 10.0 mi WSW 11.5 mph - N/A   Overcast
12:30 PM 42.8 °F 37.5 °F 35.6 °F 76% 29.66 in 10.0 mi WSW 9.2 mph - N/A   Overcast
12:50 PM 44.6 °F 39.2 °F 35.6 °F 71% 29.66 in 10.0 mi SW 10.4 mph - N/A   Overcast
1:10 PM 44.6 °F 39.2 °F 35.6 °F 71% 29.66 in 10.0 mi WSW 10.4 mph - N/A   Overcast
1:30 PM 44.6 °F 39.2 °F 35.6 °F 71% 29.67 in 10.0 mi West 10.4 mph - N/A   Overcast
1:50 PM 44.6 °F 39.7 °F 35.6 °F 71% 29.66 in 10.0 mi WSW 9.2 mph - N/A   Overcast
2:10 PM 44.6 °F 39.7 °F 35.6 °F 71% 29.67 in 10.0 mi West 9.2 mph - N/A   Overcast
2:30 PM 46.4 °F 42.9 °F 35.6 °F 66% 29.67 in 10.0 mi WSW 6.9 mph - N/A   Overcast
2:50 PM 46.4 °F 41.5 °F 35.6 °F 66% 29.67 in 10.0 mi West 10.4 mph - N/A   Overcast
3:10 PM 46.4 °F 41.5 °F 35.6 °F 66% 29.68 in 10.0 mi WSW 10.4 mph - N/A   Overcast
3:30 PM 44.6 °F 39.2 °F 39.2 °F 81% 29.68 in 7.0 mi WSW 10.4 mph - N/A Rain Light Rain
4:10 PM 46.4 °F 41.9 °F 37.4 °F 71% 29.68 in 10.0 mi SW 9.2 mph - N/A   Overcast
4:30 PM 46.4 °F 41.1 °F 37.4 °F 71% 29.68 in 10.0 mi WSW 11.5 mph - N/A   Overcast
4:50 PM 46.4 °F 42.4 °F 37.4 °F 71% 29.69 in 10.0 mi WSW 8.1 mph - N/A   Overcast
5:10 PM 46.4 °F 41.9 °F 39.2 °F 76% 29.68 in 10.0 mi SW 9.2 mph - N/A   Overcast
5:30 PM 46.4 °F 41.9 °F 37.4 °F 71% 29.68 in 10.0 mi SW 9.2 mph - N/A   Overcast
5:50 PM 46.4 °F 41.9 °F 37.4 °F 71% 29.68 in 10.0 mi SW 9.2 mph - N/A   Overcast
6:10 PM 46.4 °F 42.4 °F 39.2 °F 76% 29.69 in 10.0 mi SW 8.1 mph - N/A   Overcast
6:30 PM 46.4 °F 41.9 °F 39.2 °F 76% 29.69 in 10.0 mi SW 9.2 mph - N/A   Overcast
6:50 PM 46.4 °F 41.9 °F 41.0 °F 81% 29.70 in 10.0 mi SW 9.2 mph - N/A   Overcast
7:10 PM 46.4 °F 42.4 °F 41.0 °F 81% 29.70 in 10.0 mi SW 8.1 mph - N/A   Overcast
7:30 PM 44.6 °F 42.2 °F 41.0 °F 87% 29.70 in 10.0 mi WSW 4.6 mph - N/A Rain Light Rain
7:50 PM 44.6 °F 41.4 °F 41.0 °F 87% 29.70 in 10.0 mi WSW 5.8 mph - N/A   Light Drizzle
8:10 PM 44.6 °F 42.2 °F 41.0 °F 87% 29.71 in 10.0 mi WSW 4.6 mph - N/A   Drizzle
8:30 PM 44.6 °F 41.4 °F 41.0 °F 87% 29.71 in 10.0 mi WSW 5.8 mph - N/A Rain Rain
8:50 PM 44.6 °F 40.2 °F 41.0 °F 87% 29.72 in 10.0 mi West 8.1 mph - N/A   Drizzle
9:10 PM 44.6 °F 38.4 °F 42.8 °F 93% 29.72 in 7.0 mi West 12.7 mph 17.3 mph N/A   Light Drizzle
9:30 PM 44.6 °F 40.2 °F 41.0 °F 87% 29.72 in 10.0 mi West 8.1 mph - N/A   Overcast
9:50 PM 46.4 °F 41.9 °F 41.0 °F 81% 29.73 in 10.0 mi West 9.2 mph - N/A   Overcast
10:10 PM 46.4 °F 41.1 °F 41.0 °F 81% 29.73 in 10.0 mi West 11.5 mph - N/A   Overcast
10:30 PM 46.4 °F 41.1 °F 41.0 °F 81% 29.74 in 10.0 mi West 11.5 mph 18.4 mph N/A   Overcast
10:50 PM 46.4 °F 42.4 °F 41.0 °F 81% 29.74 in 10.0 mi West 8.1 mph - N/A   Overcast
11:10 PM 44.6 °F 39.7 °F 41.0 °F 87% 29.75 in 10.0 mi West 9.2 mph - N/A   Overcast
11:30 PM 46.4 °F 41.9 °F 41.0 °F 81% 29.75 in 10.0 mi West 9.2 mph - N/A   Overcast
11:50 PM 44.6 °F 38.8 °F 41.0 °F 87% 29.75 in 10.0 mi West 11.5 mph 17.3 mph N/A   Overcast